Location: El Portezuelo
(28.4984°N, 16.3589°W)
Time: 06:33:29
(UTC+00:00)

Cosmos 2181 Rocket - Pass Details

Date: 20 January 2020
Orbit: 952 x 1014 km, 82.9° (Epoch: 23 February)

Event Time Altitude Azimuth Distance (km) Brightness Sun altitude
Rises 07:06:09 0° 195° (SSW) 3,618 7.0 -11.6°
Reaches altitude 10° 07:08:40 10° 199° (SSW) 2,681 6.3 -11.1°
Maximum altitude 07:14:40 57° 277° (W) 1,125 4.0 -9.8°
Drops below altitude 10° 07:20:48 10° 356° (N) 2,729 6.1 -8.5°
Sets 07:23:24 0° 0° (N) 3,689 6.8 -8.0°
